www.pogodaiklimat.ru

Погода и климат >> Архив погоды >> Австралия >> Geraldton Airport


ПОГОДА в Geraldton Airport

  • Прогноз погоды в Geraldton Airport
  • Монитор погоды в Geraldton Airport
  • Климат города

АРХИВ ПОГОДЫ в Geraldton Airport

Время (UTC), дата Ветер
(напр.,м/с)
 
Видим.   Явления Облачность Т
(С)
Тd
(С)
f
(%)
Тe
(С)
Тes
(С)
Комфортность P
(гПа)
Po
(гПа)
Тmin
(С)
Tmax
(С)
R
(мм)
R24
(мм)
S
(см)
13 8.08 СЗ 6 н/о 10/10 1000 м
[]
+17.5 +12.6 73 +17 +17 1014.7 1011.1 +20.0
15 8.08 СЗ 8 н/о н/о +17.8 +12.0 69 +17 +17 1014.1 1010.5
16 8.08 СЗ 9 н/о 10/10 1000 м
[]
+17.5 +12.4 72 +16 +16 1013.3 1009.7
18 8.08 СЗ 10 н/о н/о +17.6 +11.6 68 +16 +16 1012.1 1008.5
19 8.08 СЗ 11 н/о 10/10 1000 м
[]
+17.9 +11.2 65 +17 +17 1011.5 1007.9
21 8.08 СЗ 10 н/о н/о +17.8 +13.1 74 +17 +17 1010.6 1007.0
22 8.08 СЗ 10 н/о 10/10 1000 м
[]
+18.1 +13.2 73 +17 +17 1010.2 1006.6
00 9.08 З 10 н/о н/о +14.8 +13.8 94 +12 +12 1012.8 1009.2
01 9.08 З 10 н/о в посл. час дождь {туман} 10/10 300 м
[]
+14.6 +12.3 86 +12 +12 1014.2 1010.6 +10.5
03 9.08 З 11 н/о н/о +15.9 +9.8 67 +14 +14 1015.2 1011.6
04 9.08 З 12 н/о {туман} 10/10 1000 м
[]
+16.6 +10.5 67 +15 +15 1015.4 1011.8
06 9.08 ЮЗ 11 н/о н/о +16.3 +9.3 63 +14 +14 1015.6 1012.0
07 9.08 ЮЗ 9 н/о {туман} 4/4 1000 м
[]
+16.7 +8.9 60 +15 +15 1016.1 1012.5
09 9.08 ЮЗ 10 н/о н/о +14.9 +7.0 59 +13 +13 1017.2 1013.6
10 9.08 ЮЗ 8 н/о 8/8 1000 м
[]
+14.4 +6.5 59 +12 +12 1018.0 1014.4
12 9.08 ЮЗ 9 н/о н/о +12.9 +6.9 67 +10 +10 1019.8 1016.2
13 9.08 ЮЗ 10 н/о {туман} 8/8 1000 м
[]
+12.6 +7.5 71 +9 +9 1020.6 1017.0 +18.6
15 9.08 ЮЗ 8 н/о н/о +11.3 +6.4 72 +8 +8 1021.5 1017.9
16 9.08 ЮЗ 9 н/о туман местами 10/10 600 м
[]
+10.4 +7.8 84 +6 +6 1022.1 1018.5
18 9.08 Ю 6 н/о н/о +10.4 +6.7 78 +7 +7 1022.2 1018.6
19 9.08 Ю 6 н/о туман местами 10/10 1000 м
[]
+10.8 +7.5 80 +8 +8 1022.0 1018.4
21 9.08 ЮВ 5 н/о н/о +9.4 +7.7 89 +6 +6 1023.4 1019.8
22 9.08 В 4 н/о в посл. час дождь {туман} 5/5 600 м
[]
+8.7 +7.0 89 +6 +6 1023.6 1020.0
00 10.08 В 2 н/о н/о +9.1 +7.7 91 +7 +7 1026.6 1022.9
01 10.08 В 5 н/о {туман} 3/0 2000 м
[]
+11.1 +7.6 79 +8 +10 1027.7 1024.0 +6.6
03 10.08 ЮВ 5 н/о н/о +13.5 +7.5 67 +12 +12 1028.2 1024.5
04 10.08 ЮВ 5 н/о н/о +14.5 +6.3 58 +13 +13 1027.7 1024.0
06 10.08 ЮВ 5 н/о н/о +15.2 +6.2 55 +14 +14 1026.9 1023.2
07 10.08 Ю 4 н/о 10/10 1000 м
[]
+14.7 +7.3 61 +14 +14 1027.0 1023.3
09 10.08 Ю 4 н/о н/о +13.9 +7.7 66 +13 +13 1028.1 1024.4
10 10.08 Ю 4 н/о н/о +11.2 +7.5 78 +9 +9 1028.6 1024.9
12 10.08 ЮВ 3 н/о н/о +7.9 +6.0 88 +5 +5 1029.8 1026.1
13 10.08 ЮВ 3 н/о н/о +7.3 +5.8 90 +4 +4 1030.3 1026.6 +16.4
15 10.08 ЮВ 3 н/о н/о +6.4 +5.0 91 +3 +3 1030.1 1026.4
16 10.08 ЮВ 2 н/о н/о +5.5 +4.3 92 +3 +3 1030.0 1026.3
18 10.08 С 2 н/о н/о +5.3 +4.4 94 +3 +3 1029.4 1025.7
19 10.08 СВ 3 н/о н/о +4.4 +3.4 93 +1 +1 1029.2 1025.5
21 10.08 штиль 0 н/о н/о +3.9 +2.7 92 +3 +3 1028.4 1024.7
22 10.08 Ю 1 н/о н/о +4.5 +3.2 91 +3 +3 1029.4 1025.7
00 11.08 С 2 н/о н/о +6.6 +5.1 90 +4 +4 1030.6 1026.9
01 11.08 СВ 2 н/о н/о +10.8 +7.1 78 +10 +10 1030.8 1027.1 +3.4
03 11.08 СВ 7 н/о н/о +14.3 +6.6 60 +12 +12 1029.8 1026.1
04 11.08 В 6 н/о н/о +15.3 +7.6 60 +14 +14 1028.9 1025.2
06 11.08 В 5 н/о н/о +16.7 +8.1 57 +16 +16 1027.1 1023.4
07 11.08 В 4 н/о н/о +16.9 +7.0 52 +17 +17 1026.8 1023.1
09 11.08 В 3 н/о н/о +15.6 +8.1 61 +15 +15 1026.5 1022.8
10 11.08 В 3 н/о н/о +12.2 +8.1 76 +11 +11 1026.4 1022.7
12 11.08 ЮВ 3 н/о н/о +8.7 +7.0 89 +6 +6 1027.4 1023.7
13 11.08 В 1 н/о н/о +7.1 +5.3 88 +6 +6 1027.3 1023.6 +17.4
15 11.08 СВ 2 н/о н/о +4.9 +3.6 91 +2 +2 1026.6 1022.9
16 11.08 СВ 3 н/о н/о +4.6 +3.1 90 +1 +1 1026.4 1022.7
18 11.08 С 4 н/о н/о +6.1 +3.4 83 +2 +2 1025.5 1021.8
19 11.08 С 4 н/о н/о +4.9 +2.8 86 +1 +1 1024.4 1020.8
21 11.08 СВ 2 н/о н/о +4.7 +2.9 88 +3 +3 1024.3 1020.7
22 11.08 СВ 3 н/о н/о +3.9 +2.1 88 0 0 1024.3 1020.7
00 12.08 СВ 8 н/о н/о +7.9 +3.9 76 +3 +3 1025.3 1021.6
01 12.08 СВ 8 н/о н/о +11.4 +4.6 63 +8 +8 1025.8 1022.1 +2.7
03 12.08 СВ 9 н/о н/о +16.9 +6.4 50 +16 +16 1025.1 1021.5
04 12.08 С 8 н/о н/о +18.8 +6.6 45 +18 +18 1024.3 1020.7
06 12.08 С 7 н/о н/о +20.5 +6.1 39 +21 +21 комфорт 1022.3 1018.7
07 12.08 С 7 н/о н/о +20.5 +4.1 34 +21 +21 комфорт 1022.0 1018.4
09 12.08 С 2 н/о н/о +20.0 +10.4 54 +22 +22 комфорт 1021.7 1018.1
10 12.08 В 3 н/о н/о +14.2 +8.4 68 +13 +13 1021.7 1018.1
12 12.08 В 3 н/о н/о +8.3 +5.2 81 +6 +6 1022.2 1018.6
13 12.08 С 3 н/о н/о +7.8 +5.9 88 +5 +5 1022.3 1018.7 +21.0
15 12.08 С 5 н/о н/о +8.5 +6.3 86 +5 +5 1022.0 1018.4
16 12.08 С 6 н/о н/о +8.6 +6.4 86 +5 +5 1021.7 1018.1
18 12.08 С 6 н/о н/о +7.9 +6.2 89 +4 +4 1021.0 1017.4
19 12.08 С 6 н/о н/о +6.8 +5.3 90 +2 +2 1020.4 1016.8
21 12.08 С 7 н/о н/о +6.1 +4.1 87 +1 +1 1019.5 1015.9
22 12.08 С 7 н/о н/о +6.0 +3.5 84 +1 +1 1019.8 1016.2
00 13.08 С 4 н/о н/о +7.9 +3.8 75 +5 +5 1020.6 1017.0
01 13.08 С 7 н/о н/о +10.7 +5.5 70 +7 +7 1020.2 1016.6 +4.9
03 13.08 СЗ 4 н/о н/о +19.1 +9.9 55 +20 +20 1020.5 1016.9
04 13.08 С 5 н/о н/о +20.2 +6.9 42 +21 +21 комфорт 1019.6 1016.0
06 13.08 СЗ 6 н/о н/о +20.9 +9.8 49 +22 +22 комфорт 1018.0 1014.4
07 13.08 СЗ 6 н/о н/о +20.8 +9.4 48 +22 +22 комфорт 1017.5 1013.9
09 13.08 СЗ 5 н/о н/о +18.8 +12.5 67 +19 +19 1017.5 1013.9
10 13.08 СЗ 5 н/о н/о +16.0 +12.7 81 +15 +15 1017.2 1013.6
12 13.08 С 5 н/о н/о +14.5 +11.5 82 +13 +13 1018.2 1014.6
13 13.08 СВ 5 н/о н/о +12.0 +8.8 81 +10 +10 1018.1 1014.5 +21.1
15 13.08 С 5 н/о н/о +9.8 +6.7 81 +7 +7 1018.4 1014.8
16 13.08 С 5 н/о н/о +9.5 +6.0 79 +6 +6 1018.3 1014.7
18 13.08 С 5 н/о н/о +10.2 +6.9 80 +7 +7 1017.9 1014.3
19 13.08 С 6 н/о н/о +10.2 +7.4 83 +7 +7 1017.5 1013.9
21 13.08 С 5 н/о н/о +12.4 +10.3 87 +10 +10 1016.7 1013.1
22 13.08 С 5 н/о 10/10 600 м
[]
+12.7 +10.8 88 +10 +10 1017.3 1013.7
00 14.08 ЮЗ 3 н/о н/о +15.1 +14.3 95 +14 +14 1018.9 1015.3
01 14.08 ЮЗ 5 9000 м туман местами 10/10 100 м
[]
+15.3 +14.5 95 +14 +14 1020.1 1016.5 +7.9
03 14.08 ЮВ 2 н/о н/о +16.1 +14.5 90 +16 +16 1020.2 1016.6
04 14.08 Ю 4 н/о в посл. час дождь {туман} 10/10 200 м
[]
+16.5 +15.2 92 +16 +16 1020.0 1016.4
06 14.08 ЮВ 4 н/о н/о +16.5 +14.7 89 +16 +16 1019.4 1015.8
07 14.08 ЮВ 4 н/о {туман} 10/10 300 м
[]
+17.2 +14.8 86 +17 +17 1019.4 1015.8
09 14.08 Ю 5 н/о н/о +15.9 +13.2 84 +15 +15 1020.0 1016.4
10 14.08 Ю 1 н/о 10/10 600 м
[]
+14.9 +13.3 90 +15 +15 1020.5 1016.9
12 14.08 ЮВ 3 н/о н/о +12.5 +10.7 89 +11 +11 1022.0 1018.4
13 14.08 ЮВ 3 н/о 10/10 1000 м
[]
+11.0 +9.4 90 +9 +9 1022.4 1018.8 +17.9
15 14.08 В 2 н/о н/о +9.3 +8.1 92 +7 +7 1022.9 1019.3
16 14.08 ЮВ 2 н/о 10/10 1000 м
[]
+9.7 +8.5 92 +8 +8 1022.8 1019.2
18 14.08 СВ 4 н/о н/о +7.9 +6.7 92 +5 +5 1022.8 1019.2
19 14.08 СВ 2 н/о 4/4 1500 м
[]
+7.3 +6.2 93 +5 +5 1022.7 1019.1
21 14.08 СВ 3 н/о н/о +7.2 +6.1 93 +4 +4 1022.3 1018.7
22 14.08 СВ 3 н/о 9/9 1500 м
[]
+8.4 +7.5 94 +6 +6 1022.7 1019.1
00 15.08 СВ 3 н/о н/о +9.3 +8.1 92 +7 +7 1023.9 1020.3
01 15.08 В 2 н/о н/о +12.6 +10.0 84 +12 +12 1024.5 1020.9 +7.0
03 15.08 В 4 н/о н/о +16.5 +11.4 72 +16 +16 1024.1 1020.5
04 15.08 ЮВ 5 н/о 10/10 600 м
[]
+17.0 +11.5 70 +16 +16 1023.4 1019.8
06 15.08 ЮВ 4 н/о н/о +18.3 +10.9 62 +18 +18 1022.0 1018.5
07 15.08 ЮВ 5 н/о {туман} 9/9 1000 м
[]
+16.9 +11.0 68 +16 +16 1021.8 1018.2
09 15.08 Ю 6 н/о н/о +16.4 +11.3 72 +15 +15 1021.8 1018.2
10 15.08 Ю 4 н/о н/о +13.7 +10.7 82 +12 +12 1021.9 1018.3

 

Местоположение метеостанции Geraldton Airport (Западная Австралия, Австралия): широта -28.80 долгота 114.70 высота над уровнем моря 35 м.

В архиве по умолчанию представлена погода в Geraldton Airport за последнюю неделю. Архивные данные за месяц целиком и за предыдущие месяцы, начиная с января 2011 года, Вы можете получить, выбрав интересующий диапазон дат из раскрывающегося списка и нажав кнопку "Ввод!".


*Определитесь, кто Вы:
робот инопланетянин человек

Внимание! Время в таблицах - всемирное. Для получения местного времени необходимо прибавить поправку, которая в Geraldton Airport равна 8 ч.

Смотрите также архив погоды в соседних городах и на ближайших метеорологических станциях:

Погода в Morawa Airport (Западная Австралия, Австралия) (136 км)
Погода в Rottnest Island Lighthouse (Западная Австралия, Австралия) (188 км)
Погода в Dalwallinu (Западная Австралия, Австралия) (252 км)
Погода в Mount Magnet Aero (Западная Австралия, Австралия) (316 км)
Погода в Gingin Aero (Западная Австралия, Австралия) (318 км)
Погода в Shark Bay Airport (Западная Австралия, Австралия) (341 км)
Погода в Bullsbrook Pearce Amo (Западная Австралия, Австралия) (343 км)
Погода в Wanneroo (Западная Австралия, Австралия) (344 км)
Погода в Mount Lawley Perth Metro (Западная Австралия, Австралия) (365 км)
Погода в Swanbourne (Западная Австралия, Австралия) (365 км)

Пояснения к столбцам:

Ветер - указаны скорость ветра в м/с - средняя за 10 мин, порывы в срок и между сроками (в фигурных скобках) и направление, откуда дует ветер: С - северный, СВ - северо-восточный, В - восточный, ЮВ - юго-восточный, Ю - южный, ЮЗ - юго-западный, З - западный, СЗ - северо-западный.
Видимость - горизонтальная дальность видимости в метрах или километрах. При видимости от 1 до 10 км при отсутствии осадков обычно наблюдается дымка, при ухудшении видимости до 1 км и менее - туман. В сухую погоду видимость может ухудшаться дымом, пылью или мглою.
Явления - указаны атмосферные явления, наблюдавшиеся в срок или в последний час перед сроком; фигурными скобками обозначены явления, наблюдавшиеся между сроками (за 1-3 часа до срока); квадратными скобками обозначены град или гололедные отложения с указанием их диаметра в мм.
Облачность - указаны через наклонную черту общая и нижняя облачность в баллах и высота нижней границы облаков в метрах; квадратными скобками обозначены формы облаков: Ci - перистые, Cs - перисто-слоистые, Cc - перисто-кучевые, Ac - высококучевые, As - высокослоистые, Sc - слоисто-кучевые, Ns - слоисто-дождевые, Cu - кучевые, Cb - кучево-дождевые. Подробнее классификацию облаков см. в Атласе облаков (PDF).
T - Температура воздуха - температура, измеренная на высоте 2 м над землей.
Td - Температура точки росы - температура, при понижении до которой содержащийся в воздухе водяной пар достигнет насыщения.
f - Относительная влажность воздуха - влажноcть воздуха, измеренная на высоте 2 м над землей.
Te - Эффективная температура - температура, которую ощущает одетый по сезону человек в тени. Характеристика душности погоды. При расчете учитывается влияние влажности воздуха и скорости ветра на теплоощущения человека.
Tes - Эффективная температура на солнце - температура, которую ощущает человек, с поправкой на солнечный нагрев. Характеристика знойности погоды. Зависит от высоты солнца над горизонтом, облачности и скорости ветра. Ночью, в пасмурную погоду, а также при ветре 12 м/с и более поправка равна нулю.
P - Атмосферное давление - приведенное к уровню моря атмосферное давление.
Po - Атмосферное давление - измеренное на уровне метеостанции атмосферное давление.
Tmin - Минимальная температура - минимум температуры воздуха на высоте 2 м над землей.
Tmax - Максимальная температура - максимум температуры воздуха на высоте 2 м над землей.
R - Количество осадков - Количество выпавших осадков за период времени, мм. При наведении курсора мыши на число - период времени, за который выпало указанное количество осадков.
R24 - Количество осадков - Количество выпавших осадков за 24 часа, мм.
S - Снежный покров - Высота снежного покрова, см. При наведении курсора мыши на число - состояние снежного покрова и степень покрытия местности в баллах.